AEE650 LGAV-LGMK

Flight info

Callsign AEE650
Flight time 0h 24m
Altitude 15000
Route KEA1E KEA L995 VARIX VARIX1T
Aircraft A320/M-V/N

Departure

Time 2026-05-04 15:42
Airport Athens Eleftherios Venizelos International Airport (LGAV)

Arrival

Time 2026-05-04 16:06
Airport Mykonos Island National Airport (LGMK)
Time Latitude Longitude Altitude Speed Heading
2026-05-04 15:23 37.94310 23.95410 302 ft 0 kts 37°
2026-05-04 15:35 37.94314 23.95413 301 ft 2 kts 37°
2026-05-04 15:36 37.94337 23.95474 303 ft 6 kts 95°
2026-05-04 15:36 37.94315 23.95527 302 ft 8 kts 126°
2026-05-04 15:36 37.94277 23.95594 301 ft 11 kts 126°
2026-05-04 15:37 37.94216 23.95657 299 ft 12 kts 176°
2026-05-04 15:37 37.94136 23.95602 300 ft 14 kts 215°
2026-05-04 15:37 37.94055 23.95650 299 ft 14 kts 169°
2026-05-04 15:37 37.93974 23.95587 301 ft 15 kts 217°
2026-05-04 15:38 37.93886 23.95504 300 ft 17 kts 216°
2026-05-04 15:38 37.93789 23.95413 300 ft 18 kts 217°
2026-05-04 15:38 37.93683 23.95312 301 ft 20 kts 216°
2026-05-04 15:38 37.93567 23.95205 297 ft 21 kts 216°
2026-05-04 15:39 37.93442 23.95090 298 ft 23 kts 216°
2026-05-04 15:39 37.93310 23.94964 300 ft 25 kts 217°
2026-05-04 15:39 37.93022 23.94688 302 ft 27 kts 217°
2026-05-04 15:40 37.92866 23.94541 302 ft 28 kts 218°
2026-05-04 15:40 37.92705 23.94388 303 ft 29 kts 217°
2026-05-04 15:40 37.92564 23.94286 304 ft 13 kts 169°
2026-05-04 15:40 37.92533 23.94331 307 ft 6 kts 126°
2026-05-04 15:41 37.92503 23.94384 308 ft 10 kts 126°
2026-05-04 15:41 37.92503 23.94469 308 ft 11 kts 59°
2026-05-04 15:41 37.92578 23.94537 306 ft 19 kts 37°
2026-05-04 15:41 37.92881 23.94825 299 ft 88 kts 37°
2026-05-04 15:42 37.93521 23.95431 287 ft 139 kts 38°
2026-05-04 15:42 37.94376 23.96274 485 ft 160 kts 41°
2026-05-04 15:42 37.95242 23.97186 1094 ft 167 kts 38°
2026-05-04 15:42 37.96176 23.98121 1576 ft 181 kts 36°
2026-05-04 15:43 37.97200 23.99226 1880 ft 205 kts 38°
2026-05-04 15:43 37.98252 24.00581 2313 ft 226 kts 46°
2026-05-04 15:43 37.99407 24.01980 2913 ft 236 kts 34°
2026-05-04 15:43 38.00768 24.03146 3784 ft 237 kts 28°
2026-05-04 15:44 38.02180 24.04271 4590 ft 241 kts 28°
2026-05-04 15:44 38.03598 24.05434 5443 ft 244 kts 30°
2026-05-04 15:44 38.04987 24.06762 6098 ft 261 kts 43°
2026-05-04 15:44 38.05894 24.08834 6798 ft 281 kts 73°
2026-05-04 15:45 38.05845 24.11343 7575 ft 294 kts 106°
2026-05-04 15:45 38.04774 24.13572 8381 ft 301 kts 130°
2026-05-04 15:45 38.03357 24.15539 9228 ft 303 kts 132°
2026-05-04 15:45 38.01900 24.17448 10042 ft 306 kts 133°
2026-05-04 15:46 38.00386 24.19401 10517 ft 321 kts 132°
2026-05-04 15:46 37.98769 24.21497 10696 ft 344 kts 132°
2026-05-04 15:46 37.97055 24.23738 10893 ft 363 kts 132°
2026-05-04 15:46 37.95283 24.26073 11414 ft 370 kts 131°
2026-05-04 15:47 37.93494 24.28439 12037 ft 374 kts 131°
2026-05-04 15:47 37.91691 24.30829 12691 ft 377 kts 131°
2026-05-04 15:47 37.89877 24.33238 13363 ft 379 kts 130°
2026-05-04 15:47 37.88053 24.35664 14025 ft 382 kts 130°
2026-05-04 15:48 37.86215 24.38109 14611 ft 384 kts 130°
2026-05-04 15:48 37.84362 24.40566 14997 ft 387 kts 130°
2026-05-04 15:48 37.80599 24.45546 15125 ft 410 kts 131°
2026-05-04 15:49 37.78590 24.48211 15122 ft 425 kts 131°
2026-05-04 15:49 37.76533 24.50930 15122 ft 430 kts 131°
2026-05-04 15:49 37.74454 24.53660 15117 ft 431 kts 131°
2026-05-04 15:49 37.72369 24.56394 15117 ft 432 kts 131°
2026-05-04 15:50 37.70288 24.59127 15117 ft 432 kts 131°
2026-05-04 15:50 37.68208 24.61861 15117 ft 432 kts 131°
2026-05-04 15:50 37.66127 24.64594 15111 ft 432 kts 131°
2026-05-04 15:50 37.64053 24.67312 15021 ft 424 kts 131°
2026-05-04 15:51 37.62042 24.69942 14781 ft 409 kts 131°
2026-05-04 15:51 37.60099 24.72480 14544 ft 396 kts 131°
2026-05-04 15:51 37.58232 24.74922 14306 ft 390 kts 131°
2026-05-04 15:51 37.56354 24.77384 14057 ft 389 kts 130°
2026-05-04 15:52 37.54485 24.79836 13817 ft 387 kts 131°
2026-05-04 15:52 37.52622 24.82280 13547 ft 384 kts 131°
2026-05-04 15:52 37.50775 24.84702 13294 ft 383 kts 131°
2026-05-04 15:52 37.48932 24.87114 13034 ft 382 kts 131°
2026-05-04 15:53 37.47087 24.89523 12776 ft 381 kts 131°
2026-05-04 15:53 37.45248 24.91916 12512 ft 380 kts 131°
2026-05-04 15:53 37.43409 24.94301 12259 ft 379 kts 131°
2026-05-04 15:53 37.41573 24.96682 12003 ft 378 kts 131°
2026-05-04 15:54 37.39801 24.99093 11608 ft 372 kts 125°
2026-05-04 15:54 37.38514 25.01817 11015 ft 366 kts 109°
2026-05-04 15:54 37.37853 25.04816 10829 ft 348 kts 95°
2026-05-04 15:54 37.37750 25.07771 10701 ft 330 kts 82°
2026-05-04 15:55 37.38144 25.10537 10578 ft 313 kts 69°
2026-05-04 15:55 37.38761 25.13071 10372 ft 295 kts 69°
2026-05-04 15:55 37.39358 25.15510 10045 ft 292 kts 69°
2026-05-04 15:55 37.39958 25.17949 9665 ft 291 kts 69°
2026-05-04 15:56 37.40557 25.20374 9287 ft 291 kts 68°
2026-05-04 15:56 37.41156 25.22801 8917 ft 290 kts 68°
2026-05-04 15:56 37.41746 25.25195 8551 ft 290 kts 68°
2026-05-04 15:56 37.42341 25.27616 8189 ft 290 kts 68°
2026-05-04 15:57 37.42913 25.30044 7833 ft 291 kts 73°
2026-05-04 15:57 37.42912 25.32615 7476 ft 301 kts 101°
2026-05-04 15:57 37.41958 25.34960 7135 ft 306 kts 130°
2026-05-04 15:57 37.40245 25.36512 6787 ft 306 kts 157°
2026-05-04 15:58 37.38288 25.37556 6449 ft 305 kts 159°
2026-05-04 15:58 37.36340 25.38573 6135 ft 303 kts 159°
2026-05-04 15:58 37.34399 25.39585 5815 ft 302 kts 159°
2026-05-04 15:58 37.32458 25.40601 5420 ft 303 kts 159°
2026-05-04 15:59 37.30533 25.41612 5005 ft 296 kts 159°
2026-05-04 15:59 37.28661 25.42596 4608 ft 287 kts 159°
2026-05-04 15:59 37.26846 25.43552 4229 ft 278 kts 158°
2026-05-04 15:59 37.25169 25.44587 3914 ft 266 kts 140°
2026-05-04 16:00 37.24160 25.46377 3709 ft 243 kts 100°
2026-05-04 16:00 37.24246 25.48329 3538 ft 213 kts 57°
2026-05-04 16:00 37.25228 25.49479 3421 ft 186 kts 12°
2026-05-04 16:00 37.26435 25.49533 3315 ft 168 kts 346°
2026-05-04 16:01 37.27464 25.48985 3195 ft 156 kts 325°
2026-05-04 16:01 37.28205 25.48046 3086 ft 147 kts 314°
2026-05-04 16:01 37.28870 25.47104 2985 ft 142 kts 315°
2026-05-04 16:01 37.29527 25.46189 2888 ft 140 kts 315°
2026-05-04 16:02 37.30180 25.45283 2793 ft 139 kts 315°
2026-05-04 16:02 37.30831 25.44383 2683 ft 138 kts 316°
2026-05-04 16:02 37.32118 25.42608 2473 ft 138 kts 316°
2026-05-04 16:03 37.32767 25.41713 2372 ft 138 kts 316°
2026-05-04 16:03 37.33402 25.40835 2297 ft 133 kts 316°
2026-05-04 16:03 37.34025 25.39982 2182 ft 131 kts 320°
2026-05-04 16:03 37.34775 25.39362 2082 ft 130 kts 338°
2026-05-04 16:04 37.35618 25.38925 1908 ft 131 kts 338°
2026-05-04 16:04 37.37253 25.37933 1595 ft 130 kts 332°
2026-05-04 16:04 37.38034 25.37342 1359 ft 130 kts 332°
2026-05-04 16:05 37.38845 25.36846 1263 ft 131 kts 340°
2026-05-04 16:05 37.39689 25.36481 1094 ft 130 kts 343°
2026-05-04 16:05 37.41403 25.35738 669 ft 129 kts 340°
2026-05-04 16:06 37.42258 25.35370 529 ft 128 kts 339°
2026-05-04 16:06 37.43731 25.34724 406 ft 1 kts 340°
2026-05-04 16:07 37.43750 25.34708 406 ft 3 kts 326°
2026-05-04 16:07 37.43670 25.34700 405 ft 15 kts 204°
2026-05-04 16:08 37.43619 25.34672 403 ft 5 kts 199°
2026-05-04 16:08 37.43547 25.34686 407 ft 3 kts 179°
2026-05-04 16:09 37.43531 25.34655 406 ft 2 kts 246°
2026-05-04 16:09 37.43528 25.34645 408 ft 0 kts 250°